Weather History for PHOG - October, 2011

Change the Weather History Date:

Friday, October 14, 2011

  Actual Average Record
Temperature  
Mean Temperature 79 °F 78 °F  
Max Temperature 86 °F 87 °F 93 °F (1997)
Min Temperature 71 °F 70 °F 58 °F (1949)
Degree Days  
Heating Degree Days 0 0  
Month to date heating degree days 0 0  
Since 1 July heating degree days 0 0  
Cooling Degree Days 14 13  
Month to date cooling degree days 183 191  
Year to date cooling degree days 3183 3159  
Growing Degree Days 28 (Base 50)    
Moisture  
Dew Point 64 °F    
Average Humidity 63    
Maximum Humidity 79    
Minimum Humidity 47    
Precipitation  
Precipitation T in 0.03 in 0.14 in (1976)
Month to date precipitation 0.01 0.42  
Year to date precipitation 10.44 11.50  
Snow  
Snow 0.00 in - - ()
Month to date snowfall 0.0  
Since 1 July snowfall 0.0  
Since 1 September snowfall 0.0  
Snow Depth 0.00 in    
Sea Level Pressure  
Sea Level Pressure 30.06 in    
Wind  
Wind Speed 14 mph (NE)    
Max Wind Speed 25 mph    
Max Gust Speed 31 mph    
Visibility 9 miles    
Events Rain    
T = Trace of Precipitation, MM = Missing Value Source: NWS Daily Summary

Daily Weather History Graph

Daily Weather History Graph

Search for Another Location

Airport or City:

Trip Planner

Search our weather history database for the weather conditions in past years. The results will help you decide how hot, cold, wet, or windy it might be!

Date:

Astronomy

Oct. 14, 2011 Rise Set
Actual Time 6:20 AM HST 6:02 PM HST
Civil Twilight 5:58 AM HST 6:24 PM HST
Nautical Twilight 5:32 AM HST 6:50 PM HST
Astronomical Twilight 5:06 AM HST 7:16 PM HST
Moon 7:51 PM HST (10/14) 8:33 AM HST (10/14)
Length of Visible Light 12h 26m
Length of Day
11h 41m
Waning Gibbous, 93% of the Moon is Illuminated
Oct 14
Waning Gibbous
Oct 19
Last Quarter
Oct 26
New
Nov 2
First Quarter
Nov 10
Full

Hourly Weather History & Observations

Time (HST) Temp. Heat Index Dew Point Humidity Pressure Visibility Wind Dir Wind Speed Gust Speed Precip Events Conditions
12:54 AM 73.0 °F - 64.9 °F 76% 30.08 in 10.0 mi NNE 13.8 mph - 0.00 in   Mostly Cloudy
1:54 AM 73.9 °F - 64.0 °F 71% 30.07 in 10.0 mi ENE 15.0 mph 24.2 mph N/A   Mostly Cloudy
2:54 AM 71.1 °F - 64.0 °F 78% 30.06 in 10.0 mi ENE 5.8 mph - N/A   Partly Cloudy
3:54 AM 71.1 °F - 63.0 °F 75% 30.06 in 10.0 mi NE 5.8 mph - N/A   Partly Cloudy
4:54 AM 73.0 °F - 63.0 °F 71% 30.05 in 10.0 mi North 8.1 mph - N/A   Scattered Clouds
5:54 AM 73.0 °F - 64.0 °F 73% 30.05 in 10.0 mi NNE 13.8 mph - N/A   Clear
6:54 AM 73.0 °F - 63.0 °F 71% 30.06 in 10.0 mi NE 9.2 mph - N/A   Clear
7:54 AM 73.9 °F - 64.9 °F 73% 30.09 in 10.0 mi NE 11.5 mph - N/A   Partly Cloudy
8:54 AM 80.1 °F 82.1 °F 66.0 °F 62% 30.09 in 10.0 mi NE 13.8 mph - N/A   Partly Cloudy
9:54 AM 82.0 °F 83.1 °F 63.0 °F 52% 30.09 in 10.0 mi ENE 18.4 mph 23.0 mph N/A   Partly Cloudy
10:54 AM 84.0 °F 84.9 °F 63.0 °F 49% 30.09 in 10.0 mi ENE 18.4 mph 28.8 mph N/A   Partly Cloudy
11:54 AM 84.0 °F 84.9 °F 63.0 °F 49% 30.06 in 10.0 mi NE 17.3 mph 29.9 mph N/A   Partly Cloudy
12:54 PM 82.9 °F 84.6 °F 64.9 °F 54% 30.04 in 10.0 mi NE 18.4 mph 28.8 mph N/A   Partly Cloudy
1:54 PM 84.0 °F 85.4 °F 64.0 °F 51% 30.01 in 10.0 mi NE 21.9 mph 29.9 mph N/A   Partly Cloudy
2:54 PM 82.9 °F 83.3 °F 61.0 °F 47% 30.01 in 10.0 mi ENE 18.4 mph 26.5 mph N/A   Partly Cloudy
3:54 PM 82.0 °F 83.1 °F 63.0 °F 52% 30.01 in 10.0 mi NE 19.6 mph 27.6 mph N/A   Partly Cloudy
4:54 PM 80.1 °F 81.2 °F 62.1 °F 54% 30.02 in 10.0 mi NE 19.6 mph 24.2 mph N/A   Partly Cloudy
5:54 PM 77.0 °F - 62.1 °F 60% 30.03 in 10.0 mi NE 20.7 mph - N/A   Partly Cloudy
6:54 PM 75.9 °F - 61.0 °F 60% 30.04 in 10.0 mi NE 15.0 mph - N/A   Partly Cloudy
7:54 PM 75.0 °F - 63.0 °F 66% 30.07 in 10.0 mi NE 12.7 mph - N/A   Partly Cloudy
8:54 PM 73.0 °F - 66.0 °F 79% 30.08 in 10.0 mi NE 12.7 mph - N/A   Partly Cloudy
9:05 PM 71.6 °F - 66.2 °F 83% 30.06 in 5.0 mi ENE 11.5 mph - 0.01 in Rain Rain
9:15 PM 71.6 °F - 66.2 °F 83% 30.07 in 5.0 mi NE 12.7 mph - 0.02 in Rain Light Rain
9:54 PM 71.1 °F - 68.0 °F 90% 30.09 in 7.0 mi NE 16.1 mph 21.9 mph 0.04 in Rain Light Rain
10:54 PM 71.1 °F - 68.0 °F 90% 30.09 in 9.0 mi NE 10.4 mph 19.6 mph 0.02 in Rain Light Rain
11:54 PM 71.1 °F - 66.9 °F 87% 30.09 in 6.0 mi ENE 12.7 mph - 0.01 in Rain Light Rain